TimeEST,TemperatureF,Dew PointF,Humidity,Sea Level PressureIn,VisibilityMPH,Wind Direction,Wind SpeedMPH,Gust SpeedMPH,PrecipitationIn,Events,Conditions,WindDirDegrees,DateUTC
1:53 AM,21.9,19.0,89,30.27,8.0,Calm,Calm,-,N/A,,Clear,0,2012-12-14 06:53:00
2:53 AM,21.0,18.0,88,30.27,9.0,Calm,Calm,-,N/A,,Clear,0,2012-12-14 07:53:00
3:53 AM,21.9,19.0,89,30.25,8.0,Calm,Calm,-,N/A,,Clear,0,2012-12-14 08:53:00
4:53 AM,21.0,18.0,88,30.24,8.0,Calm,Calm,-,N/A,,Clear,0,2012-12-14 09:53:00
5:53 AM,21.0,18.0,88,30.24,8.0,Calm,Calm,-,N/A,,Clear,0,2012-12-14 10:53:00
6:53 AM,19.9,17.1,89,30.22,7.0,Calm,Calm,-,N/A,,Clear,0,2012-12-14 11:53:00
7:53 AM,21.9,19.0,89,30.21,6.0,Calm,Calm,-,N/A,,Clear,0,2012-12-14 12:53:00
8:53 AM,33.1,28.0,82,30.21,10.0,Calm,Calm,-,N/A,,Clear,0,2012-12-14 13:53:00
9:53 AM,39.0,26.1,60,30.20,10.0,SW,9.2,-,N/A,,Clear,220,2012-12-14 14:53:00
10:53 AM,42.1,23.0,47,30.16,10.0,SW,10.4,-,N/A,,Clear,220,2012-12-14 15:53:00
11:53 AM,46.0,21.0,37,30.11,10.0,WSW,10.4,-,N/A,,Clear,240,2012-12-14 16:53:00
12:53 PM,46.9,19.9,34,30.08,10.0,SW,11.5,-,N/A,,Clear,220,2012-12-14 17:53:00
1:53 PM,48.9,19.0,31,30.05,10.0,WSW,8.1,-,N/A,,Clear,250,2012-12-14 18:53:00
2:53 PM,48.0,18.0,30,30.07,10.0,West,11.5,19.6,N/A,,Clear,260,2012-12-14 19:53:00
3:53 PM,46.9,18.0,32,30.10,10.0,WNW,12.7,18.4,N/A,,Clear,290,2012-12-14 20:53:00
4:53 PM,42.1,19.9,41,30.11,10.0,West,4.6,-,N/A,,Clear,260,2012-12-14 21:53:00
5:53 PM,37.0,21.9,54,30.13,10.0,Calm,Calm,-,N/A,,Clear,0,2012-12-14 22:53:00
6:53 PM,34.0,21.9,61,30.15,10.0,Calm,Calm,-,N/A,,Clear,0,2012-12-14 23:53:00
7:53 PM,30.9,23.0,72,30.16,10.0,Calm,Calm,-,N/A,,Clear,0,2012-12-15 00:53:00
8:53 PM,28.0,23.0,81,30.17,10.0,Calm,Calm,-,N/A,,Clear,0,2012-12-15 01:53:00
9:53 PM,27.0,23.0,85,30.17,10.0,Calm,Calm,-,N/A,,Clear,0,2012-12-15 02:53:00
10:53 PM,32.0,25.0,75,30.17,10.0,Calm,Calm,-,N/A,,Clear,0,2012-12-15 03:53:00
11:53 PM,30.0,23.0,75,30.16,10.0,Calm,Calm,-,N/A,,Clear,0,2012-12-15 04:53:00